Regional Weather Roundup
Issued by NWS Jackson, KY

Home | Current Version | Previous Version | Graphics & Text | Print | Product List | Glossary On
Versions: 1 2 3 4 5 6 7 8 9 10 11 12 13 14 15 16 17 18 19 20 21 22 23 24 25 26 27 28 29 30 31 32 33 34 35 36 37 38 39 40 41 42 43 44 45 46 47 48 49 50
599
ASUS43 KJKL 260010
RWRJKL

EAST KENTUCKY HOURLY WEATHER ROUNDUP
NATIONAL WEATHER SERVICE JACKSON KY
800 PM EDT SUN JUN 25 2017

NOTE: "FAIR" INDICATES FEW OR NO CLOUDS BELOW 12,000 FEET WITH
NO SIGNIFICANT WEATHER AND/OR OBSTRUCTIONS TO VISIBILITY.

* THESE REPORTS ARE NOT UNDER NWS QUALITY CONTROL AND MAY NOT
  REPORT WEATHER SUCH AS PRECIPITATION AND FOG.

KYZ079-080-083-085-087-088-110-112-115-119-120-260100
...EASTERN KENTUCKY...

CITY           SKY/WX    TMP DP  RH WIND       PRES   REMARKS
JACKSON        CLEAR     73  52  47 CALM      30.15R
6HR MIN TEMP:  73; 6HR MAX TEMP:  78;

LONDON         CLEAR     75  46  35 W7        30.16R
6HR MIN TEMP:  75; 6HR MAX TEMP:  79;

SOMERSET*      SUNNY     73  46  38 W3        30.17R
MONTICELLO*    SUNNY     75  55  49 W6        30.18R
6HR MIN TEMP:  75; 6HR MAX TEMP:  79;

WILLIAMSBURG*  CLEAR     73  50  43 W3        30.17R
MIDDLESBORO*   CLEAR     76  48  37 CALM      30.17S
6HR MIN TEMP:  76; 6HR MAX TEMP:  79;

HARLAN APT*    CLEAR     73  43  33 CALM      30.18R
PIKE CO APT*     N/A     72  49  43 CALM      30.15R
BIG SANDY APT* CLEAR     74  51  44 W3        30.14S
6HR MIN TEMP:  74; 6HR MAX TEMP:  78;

MOREHEAD APT*  PTCLDY    75  50  41 SW6       30.13R HAZE
$$

KYZ035-036-041-042-044-050-067-078-099-260100
...CENTRAL KENTUCKY...

CITY           SKY/WX    TMP DP  RH WIND       PRES   REMARKS
MT STERLING*   MOSUNNY   73  52  46 W7        30.14R
FLEMING/MASON* MOSUNNY   73  49  42 W7        30.11R
DANVILLE*      SUNNY     77  50  38 W8        30.15S
LEXINGTON      MOSUNNY   76  49  38 W8        30.12R
6HR MIN TEMP:  75; 6HR MAX TEMP:  80;

FRANKFORT      SUNNY     77  45  32 W7        30.11R
6HR MIN TEMP:  77; 6HR MAX TEMP:  80;

LOUISVILLE     MOSUNNY   79  46  31 W12       30.11R
6HR MIN TEMP:  79; 6HR MAX TEMP:  84;

LEBANON*         N/A    N/A N/A N/A MISG        N/A
GLASGOW*       SUNNY     78  49  35 W3        30.16R
BOWLING GREEN  SUNNY     79  52  38 W9        30.15R
6HR MIN TEMP:  79; 6HR MAX TEMP:  82;

$$

KYZ091>093-OHZ055-061-077-WVZ005-015-034-035-042-260100
...SOUTHERN OHIO/WEST VIRGINIA...

CITY           SKY/WX    TMP DP  RH WIND       PRES   REMARKS
COVINGTON      MOSUNNY   73  48  41 NW12      30.10R
COLUMBUS       MOSUNNY   71  46  40 W13       30.08R
DAYTON         MOSUNNY   70  46  42 W12       30.11R
WILMINGTON     SUNNY     71  48  43 W9        30.10R
HUNTINGTON     PTCLDY    75  51  43 SW6       30.09S
CHARLESTON     PTCLDY    75  48  38 W8        30.10R
PINEVILLE*     CLEAR     67  51  56 MISG      30.20S
BECKLEY        CLEAR     68  44  42 NW8       30.17S
BLUEFIELD      CLEAR     65  43  44 NW5       30.21R
LOGAN CO APT*    N/A     72  48  43 CALM      30.15R
$$

VAZ002-007-008-TNZ017-027-036-066-071-260100
...SOUTHWEST VIRGINIA/EAST TENNESSEE...

CITY           SKY/WX    TMP DP  RH WIND       PRES   REMARKS
WISE*          CLEAR     68  43  40 CALM      30.22S
JONESVILLE*      N/A     75  46  35 NW3       30.19R
ABINGDON*      CLEAR     73  46  37 N3        30.18R
BRISTOL        PTCLDY    75  49  39 NW7       30.15R
MORRISTOWN*    CLEAR     75  46  35 NW7       30.16R
SEVIERVILLE*   CLEAR     75  46  35 NW3       30.15S
KNOXVILLE      PTCLDY    77  47  34 N8        30.14R
LAFOLLETTE*    CLEAR     75  46  35 CALM      30.20S
OAK RIDGE      CLEAR     79  45  29 VRB3      30.17R
CROSSVILLE     SUNNY     72  47  40 NW6       30.21R
NASHVILLE      SUNNY     81  45  28 NW7       30.17R
$$

...KEY TO REMARKS...
VSB - VISIBILITY IN MILES
WCI - WIND CHILL INDEX
HX  - HEAT INDEX

$$




USA.gov is the U.S. government's official web portal to all federal, state and local government web resources and services.